Вернуться в каталог

DMSP 5D-2 F11 DEB

АктивенPO
NORAD 29070·DEBRIS·🇺🇸 United States

Запущен Nov 28, 1991 с Vandenberg Space Force Base

Loading…

Ближайшие Пролёты (ближайшие 24 часа)

TLE

СвежийSource: Space-Track

Эпоха: Sep 14, 2026, 02:54 UTC

1 29070U 91082BR  26257.12101356  .00045731  00000-0  32901-2 0  9996
2 29070  98.5885  35.2542 0005511  85.4288 274.7565 15.04048890146311

Отслеживайте DMSP 5D-2 F11 DEB в реальном времени с AllMySat

Download on the App Store